sat.trackr.live / text

‹ back to catalog

TECHDEMOSAT-1 (TDS-1)

NORAD 40076 · 2014-037H

PAYLOAD ACTIVE UNKNOWN

§ Identity

Operator
Country
UK
Launch date
2014-07-08
Launch site
TYMSC
Launch vehicle
Mass (kg)
RCS (m²)
0.52

Purposes: tech_demo

External: N2YO · Heavens-Above · Gunter

§ Orbital elements

Epoch: 2026-09-19T19:21:47.159712Z

Period
95.08 min
Inclination
98.3887°
Eccentricity
0.0004806
Mean motion
15.14474002 rev/d
Perigee alt
519.3 km
Apogee alt
525.9 km
Semi-major
6,900.7 km
B*
2.9168e-4
RAAN
264.5257°
Arg perigee
320.8514°
Mean anomaly
39.2367°
Rev number
66,254

§ Raw data

TECHDEMOSAT-1 (TDS-1)1 40076U 14037H   26262.80679583  .00005289  00000+0  29168-3 0  99982 40076  98.3887 264.5257 0004806 320.8514  39.2367 15.14474002662545

JSON: /api/v1/satellites/40076 · /tle

For live sub-satellite position, see the globe view (requires WebGL).

§ Visibility from observer

Set your observer location to see the next 7 days of passes ≥ 10°. The values pass through the URL so the page stays shareable.

No JS? Fill the form by hand. The geolocation button needs JavaScript.